Regional Weather Roundup
Issued by NWS Mt. Holly, NJ

Home | Current Version | Previous Version | Text Only | Print | Product List | Glossary On
Versions: 1 2 3 4 5 6 7 8 9 10 11 12 13 14 15 16 17 18 19 20 21 22 23 24 25 26 27 28 29 30 31 32 33 34 35 36 37 38 39 40 41 42 43 44 45 46 47 48 49 50
000
ASUS41 KPHI 200211
RWRPHI

REGIONAL WEATHER ROUNDUP
NATIONAL WEATHER SERVICE MOUNT HOLLY NJ
900 PM EST THU JAN 19 2017

NOTE:  "FAIR" INDICATES FEW OR NO CLOUDS BELOW 12,000 FEET WITH NO
SIGNIFICANT WEATHER AND/OR OBSTRUCTIONS TO VISIBILITY.

 * = STATION DOES NOT REPORT PRECIPITATION (E.G. RAIN, SNOW, ETC.)
        OR FOG.

NJZ015>026-200300-
SOUTHERN NEW JERSEY

CITY           SKY/WX    TMP DP  RH WIND       PRES   REMARKS
POMONA         CLOUDY    38  33  82 CALM      30.04R
WILDWOOD*      CLOUDY    36  34  92 CALM      30.05R
MILLVILLE      PTCLDY    32  31  96 CALM      30.04R
WRIGHTSTOWN    CLOUDY    36  31  83 N5        29.99F WCI  32
MOUNT HOLLY    CLOUDY    34  31  88 NW3       30.02F
TRENTON        CLOUDY    38  33  82 NE8       30.01F WCI  32

$$
NJZ001>014-200300-
NORTHERN NEW JERSEY

CITY           SKY/WX    TMP DP  RH WIND       PRES   REMARKS
SUSSEX         CLOUDY    29  28  96 CALM      30.03S
ANDOVER*         N/A     37  32  82 N3        30.02F
MORRISTOWN     PTCLDY    32  30  93 CALM      30.05S
NEWARK         CLOUDY    42  32  67 NW9       30.04F
TETERBORO      CLOUDY    42  32  67 N5        30.03F
CALDWELL       CLOUDY    33  30  88 CALM      30.04F
SOMERVILLE     PTCLDY    40  31  70 N3        30.01F
ALLAIRE*       CLEAR     40  33  76 N6        30.03F
TOMS RIVER*    CLEAR     33  31  92 NE3       30.02F

$$
PAZ043-044-047-054-055-060>062-066>071-200300-
EASTERN PENNSYLVANIA

CITY           SKY/WX    TMP DP  RH WIND       PRES   REMARKS
PHILADELPHIA   CLOUDY    42  34  73 CALM      30.04R
NORTH PHILA    CLOUDY    37  32  82 N3        30.04F
BLUE BELL*     PTCLDY    32  32 100 CALM      30.01S
DOYLESTOWN     CLOUDY    36  32  85 NE5       30.00F WCI  32
QUAKERTOWN*    PTCLDY    32  30  93 CALM      30.02S
PERKASIE*      FAIR      32  32 100 CALM      30.02S
POTTSTOWN      CLOUDY    36  31  82 CALM      30.03S
LANCASTER      CLOUDY    40  34  79 CALM      30.03R
COATESVILLE    PTCLDY    39  34  81 CALM      30.03R
READING        PTCLDY    37  34  89 CALM      30.01R
ALLENTOWN      CLOUDY    37  30  75 NE5       30.02F WCI  33
MOUNT POCONO   CLOUDY    33  29  85 N8        29.96F WCI  26
HAZLETON       CLOUDY    34  32  93 CALM      29.99F
LEHIGHTON        N/A     36  32  87 CALM      30.02F
WILKES BARRE   CLOUDY    39  32  76 NE8       30.00F WCI  33

$$
DEZALL-MDZ008-012-015-019-020-200300-
DELAWARE AND EASTERN MARYLAND

CITY           SKY/WX    TMP DP  RH WIND       PRES   REMARKS
WILMINGTON     PTCLDY    39  33  79 CALM      30.05R
DOVER          CLOUDY    38  38 100 CALM      30.03S
GEORGETOWN     CLOUDY    36  34  92 CALM      30.05S
EASTON         CLEAR     37  34  87 CALM      30.07F
ABERDEEN       CLOUDY    33  32  97 CALM      30.05R
PATUXENT       MOCLDY    34  33  96 CALM      30.04S
OCEAN CITY     CLOUDY    36  36 100 CALM      30.05S FOG
WALLOPS ISLAND CLOUDY    38  38 100 N3        30.05F
CAMBRIDGE      CLOUDY    34  34 100 CALM      30.04S
SALISBURY      CLOUDY    36  34  92 CALM      30.04F

$$
PAZ001-021-NYZ056-072-MDZ011-DCZ001-200300-
OTHER NEARBY LOCATIONS

CITY           SKY/WX    TMP DP  RH WIND       PRES   REMARKS
HARRISBURG     CLOUDY    36  33  89 CALM      30.02R
STATE COLLEGE  CLEAR     32  30  93 CALM      29.99S
WILLIAMSPORT   CLOUDY    35  32  88 CALM      30.00F
BINGHAMTON     CLOUDY    32  30  92 NE5       29.99F WCI  27
NEW YORK CITY  MOCLDY    42  32  67 CALM      30.05F
BALTIMORE      CLOUDY    38  35  89 W3        30.03S
WASHINGTON DC  CLOUDY    42  39  89 S3        30.04S

$$



USA.gov is the U.S. government's official web portal to all federal, state and local government web resources and services.